Flag for Micronesia Weather past 2 weeks in Weno, Truk, Micronesia

Now
82 °F

Scattered showers. Overcast.


Feels Like: 90 °F
Forecast: 82 / 88 °F
Wind: 7 mph from East

Location: Truk Intl / Moen Island

Current Time: Mar 31, 2015 at 3:16:26 AM

Latest Report: Mar 31, 2015 at 2:58 AM


Visibility: 15 mi

Pressure: 29.83 "Hg

Humidity: 86%

Dew point: 77 °F

Location of WenoLocation

Historic Weather in Weno — Graph

°F

Weno temperature yesterday

Maximum temperature yesterday: 82 °F (at 5:52 AM)
Minimum temperature yesterday: 78 °F (at 2:55 PM)
Average temperature yesterday: 81 °F

Past Weeks' High & Low Weather Summary

 TemperatureHumidityPressure
High92 °F (Mar 16, 12:50 PM)97% (Mar 29, 12:54 PM)29.96 "Hg (Mar 29, 12:54 PM)
Low74 °F (Mar 24, 12:57 AM)62% (Mar 16, 12:50 PM)29.15 "Hg (Mar 29, 12:54 PM)
Average82 °F82%29.83 "Hg
* Reported Mar 16 1:52 AM — Mar 31 1:52 AM, Weno, Weather by CustomWeather, © 2015

Note: Actual official high and low records may vary slightly from our data, if they occured in-between our weather recording intervals... More about our weather records

Advertising

Weno weather history for previous 24 hours

 ConditionsComfort  
Time TempWeatherWind HumidityBarometerVisibility
1:52 AM
Tue, Mar 31
82 °FMostly cloudy.7 mph86%29.83 "Hg15 mi
12:50 AM82 °FMostly cloudy.8 mph85%29.85 "Hg15 mi
11:51 PM
Mon, Mar 30
82 °FMostly cloudy.8 mph86%29.87 "Hg15 mi
10:50 PM82 °FMostly cloudy.8 mph86%29.90 "Hg15 mi
9:50 PM82 °FMostly cloudy.7 mph86%29.91 "Hg15 mi
8:51 PM81 °FMostly cloudy.7 mph86%29.90 "Hg15 mi
7:50 PM81 °FOvercast.6 mph86%29.88 "Hg15 mi
6:55 PM81 °FOvercast.12 mph87%29.87 "Hg15 mi
5:50 PM80 °FCloudy.6 mph88%29.85 "Hg15 mi
4:50 PM80 °FCloudy.10 mph86%29.83 "Hg15 mi
3:50 PM79 °FCloudy.10 mph91%29.81 "Hg15 mi
2:55 PM78 °FSprinkles. Cloudy.9 mph91%29.81 "Hg14 mi
1:50 PM79 °FSprinkles. Cloudy.10 mph91%29.82 "Hg14 mi
12:50 PM80 °FMostly cloudy.12 mph87%29.82 "Hg15 mi
11:50 AM80 °FLight rain. Mostly cloudy.12 mph85%29.84 "Hg14 mi
10:52 AM80 °FSprinkles. Cloudy.12 mph88%29.87 "Hg15 mi
9:51 AM81 °FSprinkles. More clouds than sun.9 mph85%29.86 "Hg15 mi
8:53 AM82 °FSprinkles. More clouds than sun.12 mph86%29.87 "Hg15 mi
7:52 AM81 °FSprinkles. More clouds than sun.12 mph86%29.85 "Hg15 mi
6:52 AM82 °FMore clouds than sun.10 mph85%29.82 "Hg15 mi
5:52 AM82 °FMostly cloudy.9 mph83%29.79 "Hg15 mi
4:54 AM81 °FMostly cloudy.9 mph83%29.75 "Hg15 mi
3:51 AM82 °FMostly cloudy.12 mph83%29.74 "Hg15 mi
Weather by CustomWeather, © 2015

See weather overviewHow to use our weather pages